H1 CPF 2 NER 2024 11 27 9 332 01 glonass131 H2 1301901 9131 39155 2024 11 27 0 0 0 2024 11 30 23 45 0 900 1 1 0 0 0 1 H9 10 0 60641 0.00000 0 21195776.596 3318925.199 -13815892.649 10 0 60641 900.00000 0 22663226.070 3819002.564 -11105554.309 10 0 60641 1800.00000 0 23838774.013 4087673.082 -8179908.777 10 0 60641 2700.00000 0 24677064.466 4162290.447 -5095800.854 10 0 60641 3600.00000 0 25143290.000 4088407.645 -1913047.649 10 0 60641 4500.00000 0 25214627.539 3917600.011 1306717.576 10 0 60641 5400.00000 0 24881191.796 3705044.187 4501229.561 10 0 60641 6300.00000 0 24146468.734 3506955.319 7608781.011 10 0 60641 7200.00000 0 23027212.874 3377989.996 10569396.479 10 0 60641 8100.00000 0 21552814.154 3368723.166 13325969.023 10 0 60641 9000.00000 0 19764161.465 3523303.706 15825339.589 10 0 60641 9900.00000 0 17712050.138 3877385.575 18019300.280 10 0 60641 10800.00000 0 15455198.780 4456419.999 19865504.281 10 0 60641 11700.00000 0 13057956.245 5274379.375 21328266.897 10 0 60641 12600.00000 0 10587791.797 6332966.079 22379243.926 10 0 60641 13500.00000 0 8112669.998 7621339.911 22997975.586 10 0 60641 14400.00000 0 5698416.493 9116377.073 23172286.185 10 0 60641 15300.00000 0 3406181.406 10783452.232 22898531.814 10 0 60641 16200.00000 0 1290103.424 12577714.056 22181690.574 10 0 60641 17100.00000 0 -604729.991 14445804.479 21035292.179 10 0 60641 18000.00000 0 -2243942.233 16327953.471 19481186.246 10 0 60641 18900.00000 0 -3605077.911 18160365.161 17549151.272 10 0 60641 19800.00000 0 -4678312.699 19877798.306 15276349.098 10 0 60641 20700.00000 0 -5466631.650 21416234.978 12706632.682 10 0 60641 21600.00000 0 -5985466.788 22715526.458 9889718.076 10 0 60641 22500.00000 0 -6261807.478 23721905.019 6880234.608 10 0 60641 23400.00000 0 -6332819.476 24390254.622 3736670.381 10 0 60641 24300.00000 0 -6244029.935 24686042.751 520232.999 10 0 60641 25200.00000 0 -6047154.833 24586829.108 -2706352.040 10 0 60641 26100.00000 0 -5797661.367 24083284.418 -5880080.751 10 0 60641 27000.00000 0 -5552170.128 23179673.377 -8938921.929 10 0 60641 27900.00000 0 -5365809.419 21893778.753 -11823053.585 10 0 60641 28800.00000 0 -5289636.781 20256268.055 -14476057.788 10 0 60641 29700.00000 0 -5368240.158 18309528.487 -16846048.002 10 0 60641 30600.00000 0 -5637623.481 16106019.253 -18886704.487 10 0 60641 31500.00000 0 -6123468.954 13706211.395 -20558195.517 10 0 60641 32400.00000 0 -6839851.770 11176203.239 -21827965.010 10 0 60641 33300.00000 0 -7788462.970 8585113.344 -22671370.427 10 0 60641 34200.00000 0 -8958373.835 6002362.216 -23072158.347 10 0 60641 35100.00000 0 -10326351.486 3494958.166 -23022769.029 10 0 60641 36000.00000 0 -11857711.465 1124901.882 -22524465.109 10 0 60641 36900.00000 0 -13507669.931 -1053181.536 -21587283.463 10 0 60641 37800.00000 0 -15223136.895 -2994084.869 -20229813.029 10 0 60641 38700.00000 0 -16944873.394 -4663651.756 -18478804.910 10 0 60641 39600.00000 0 -18609920.428 -6039934.663 -16368624.369 10 0 60641 40500.00000 0 -20154196.628 -7113832.716 -13940557.329 10 0 60641 41400.00000 0 -21515155.045 -7889186.494 -11241986.557 10 0 60641 42300.00000 0 -22634387.723 -8382329.735 -8325455.032 10 0 60641 43200.00000 0 -23460069.543 -8621120.619 -5247635.763 10 0 60641 44100.00000 0 -23949140.221 -8643496.686 -2068228.743 10 0 60641 45000.00000 0 -24069134.787 -8495616.879 1151193.312 10 0 60641 45900.00000 0 -23799587.910 -8229670.753 4348368.287 10 0 60641 46800.00000 0 -23132955.396 -7901448.002 7461534.851 10 0 60641 47700.00000 0 -22075016.187 -7567770.688 10430607.582 10 0 60641 48600.00000 0 -20644739.545 -7283895.449 13198315.865 10 0 60641 49500.00000 0 -18873623.815 -7100993.681 15711286.425 10 0 60641 50400.00000 0 -16804534.403 -7063813.902 17921050.615 10 0 60641 51300.00000 0 -14490088.661 -7208622.823 19784959.164 10 0 60641 52200.00000 0 -11990653.271 -7561510.048 21266988.740 10 0 60641 53100.00000 0 -9372035.151 -8137126.604 22338426.508 10 0 60641 54000.00000 0 -6702959.001 -8937910.007 22978420.766 10 0 60641 54900.00000 0 -4052433.128 -9953829.025 23174387.793 10 0 60641 55800.00000 0 -1487109.888 -11162660.503 22922267.066 10 0 60641 56700.00000 0 931252.425 -12530789.118 22226619.244 10 0 60641 57600.00000 0 3148123.032 -14014499.720 21100563.646 10 0 60641 58500.00000 0 5118231.821 -15561711.618 19565554.401 10 0 60641 59400.00000 0 6807218.178 -17114085.602 17650997.110 10 0 60641 60300.00000 0 8192826.462 -18609418.510 15393710.704 10 0 60641 61200.00000 0 9265597.180 -19984227.210 12837242.139 10 0 60641 62100.00000 0 10029023.389 -21176414.938 10031044.684 10 0 60641 63000.00000 0 10499163.996 -22127908.152 7029533.656 10 0 60641 63900.00000 0 10703728.525 -22787152.077 3891036.548 10 0 60641 64800.00000 0 10680670.551 -23111357.900 676657.362 10 0 60641 65700.00000 0 10476348.504 -23068404.154 -2550922.569 10 0 60641 66600.00000 0 10143331.703 -22638308.888 -5728682.789 10 0 60641 67500.00000 0 9737945.470 -21814207.157 -8794515.097 10 0 60641 68400.00000 0 9317661.153 -20602789.543 -11688461.394 10 0 60641 69300.00000 0 8938444.160 -19024180.723 -14353911.239 10 0 60641 70200.00000 0 8652175.293 -17111261.535 -16738733.098 10 0 60641 71100.00000 0 8504257.693 -14908462.360 -18796314.795 10 0 60641 72000.00000 0 8531513.537 -12470078.782 -20486490.761 10 0 60641 72900.00000 0 8760461.832 -9858181.251 -21776336.564 10 0 60641 73800.00000 0 9206051.731 -7140207.972 -22640814.359 10 0 60641 74700.00000 0 9870905.659 -4386343.674 -23063256.558 10 0 60641 75600.00000 0 10745104.115 -1666795.637 -23035678.789 10 0 60641 76500.00000 0 11806520.368 950917.863 -22558917.132 10 0 60641 77400.00000 0 13021689.421 3404552.709 -21642588.474 10 0 60641 78300.00000 0 14347172.809 5639490.011 -20304876.586 10 0 60641 79200.00000 0 15731359.724 7610756.024 -18572150.090 10 0 60641 80100.00000 0 17116626.767 9284628.621 -16478421.778 10 0 60641 81000.00000 0 18441763.892 10639766.071 -14064661.737 10 0 60641 81900.00000 0 19644563.467 11667814.427 -11377979.389 10 0 60641 82800.00000 0 20664463.130 12373471.914 -8470691.820 10 0 60641 83700.00000 0 21445131.627 12774011.564 -5399297.620 10 0 60641 84600.00000 0 21936889.822 12898285.778 -2223376.841 10 0 60641 85500.00000 0 22098866.651 12785257.757 995561.280 10 0 60642 0.00000 0 21900801.289 12482123.950 4195260.443 10 0 60642 900.00000 0 21324417.771 12042107.775 7313908.746 10 0 60642 1800.00000 0 20364316.596 11522018.420 10291313.252 10 0 60642 2700.00000 0 19028347.222 10979676.506 13070042.210 10 0 60642 3600.00000 0 17337446.989 10471314.146 15596510.424 10 0 60642 4500.00000 0 15324953.445 10049056.910 17821990.540 10 0 60642 5400.00000 0 13035418.188 9758591.596 19703532.599 10 0 60642 6300.00000 0 10522970.187 9637115.860 21204776.130 10 0 60642 7200.00000 0 7849294.525 9711654.207 22296640.858 10 0 60642 8100.00000 0 5081307.719 9997810.070 22957884.034 10 0 60642 9000.00000 0 2288622.982 10499006.154 23175514.422 10 0 60642 9900.00000 0 -459092.701 11206245.724 22945054.986 10 0 60642 10800.00000 0 -3094763.070 12098406.526 22270648.598 10 0 60642 11700.00000 0 -5556441.591 13143057.550 21165003.356 10 0 60642 12600.00000 0 -7789641.346 14297767.418 19649176.582 10 0 60642 13500.00000 0 -9749360.054 15511852.814 17752199.204 10 0 60642 14400.00000 0 -11401716.035 16728496.705 15510545.061 10 0 60642 15300.00000 0 -12725126.196 17887150.029 12967452.596 10 0 60642 16200.00000 0 -13710975.442 18926117.682 10172109.558 10 0 60642 17100.00000 0 -14363747.712 19785220.781 7178714.374 10 0 60642 18000.00000 0 -14700611.256 20408422.659 4045430.992 10 0 60642 18900.00000 0 -14750473.952 20746306.399 833256.877 10 0 60642 19800.00000 0 -14552547.321 20758296.929 -2395173.680 10 0 60642 20700.00000 0 -14154479.454 20414530.752 -5576826.540 10 0 60642 21600.00000 0 -13610136.267 19697290.902 -8649519.145 10 0 60642 22500.00000 0 -12977126.248 18601943.159 -11553159.743 10 0 60642 23400.00000 0 -12314175.616 17137330.987 -14230947.592 10 0 60642 24300.00000 0 -11678467.665 15325610.254 -16630508.091 10 0 60642 25200.00000 0 -11123061.832 13201529.226 -18704938.242 10 0 60642 26100.00000 0 -10694504.559 10811183.646 -20413739.931 10 0 60642 27000.00000 0 -10430735.439 8210299.575 -21723621.333 10 0 60642 27900.00000 0 -10359378.975 5462117.107 -22609149.954 10 0 60642 28800.00000 0 -10496495.100 2634965.154 -23053244.369 10 0 60642 29700.00000 0 -10845841.283 -200369.538 -23047495.586 10 0 60642 30600.00000 0 -11398676.600 -2973367.743 -22592312.807 10 0 60642 31500.00000 0 -12134114.516 -5616482.604 -21696892.256 10 0 60642 32400.00000 0 -13020007.494 -8067710.809 -20379011.519 10 0 60642 33300.00000 0 -14014323.834 -10272923.363 -18664655.377 10 0 60642 34200.00000 0 -15066956.418 -12187860.109 -16587482.476 10 0 60642 35100.00000 0 -16121885.110 -13779707.083 -14188145.145 10 0 60642 36000.00000 0 -17119600.070 -15028193.849 -11513477.343 10 0 60642 36900.00000 0 -17999682.952 -15926168.450 -8615568.015 10 0 60642 37800.00000 0 -18703436.906 -16479629.753 -5550739.008 10 0 60642 38700.00000 0 -19176455.109 -16707219.557 -2378448.067 10 0 60642 39600.00000 0 -19371020.657 -16639199.145 839861.444 10 0 60642 40500.00000 0 -19248238.411 -16315956.057 4041942.026 10 0 60642 41400.00000 0 -18779810.927 -15786105.771 7165932.489 10 0 60642 42300.00000 0 -17949385.723 -15104269.104 10151535.406 10 0 60642 43200.00000 0 -16753418.975 -14328618.857 12941160.319 10 0 60642 44100.00000 0 -15201520.601 -13518298.029 15481012.464 10 0 60642 45000.00000 0 -13316266.790 -12730816.562 17722107.997 10 0 60642 45900.00000 0 -11132487.518 -12019534.015 19621198.276 10 0 60642 46800.00000 0 -8696057.533 -11431331.645 21141587.417 10 0 60642 47700.00000 0 -6062239.194 -11004569.572 22253829.099 10 0 60642 48600.00000 0 -3293643.321 -10767413.122 22936290.555 10 0 60642 49500.00000 0 -457889.540 -10736597.559 23175573.670 10 0 60642 50400.00000 0 2374940.221 -10916682.985 22966785.153 10 0 60642 51300.00000 0 5134952.806 -11299831.462 22313649.970 10 0 60642 52200.00000 0 7755092.528 -11866117.461 21228464.526 10 0 60642 53100.00000 0 10173679.860 -12584361.064 19731888.519 10 0 60642 54000.00000 0 12336736.209 -13413451.810 17852577.058 10 0 60642 54900.00000 0 14199998.647 -14304110.626 15626657.385 10 0 60642 55800.00000 0 15730540.277 -15201018.433 13097057.581 10 0 60642 56700.00000 0 16907927.464 -16045224.014 10312697.663 10 0 60642 57600.00000 0 17724863.788 -16776730.934 7327556.604 10 0 60642 58500.00000 0 18187291.696 -17337154.545 4199631.945 10 0 60642 59400.00000 0 18313945.633 -17672335.992 989811.519 10 0 60642 60300.00000 0 18135373.852 -17734800.786 -2239320.656 10 0 60642 61200.00000 0 17692469.190 -17485955.187 -5424720.003 10 0 60642 62100.00000 0 17034570.695 -16897924.194 -8504132.771 10 0 60642 63000.00000 0 16217217.093 -15954949.890 -11417336.546 10 0 60642 63900.00000 0 15299648.683 -14654287.701 -14107343.028 10 0 60642 64800.00000 0 14342165.595 -13006559.907 -16521537.001 10 0 60642 65700.00000 0 13403456.827 -11035549.374 -18612726.769 10 0 60642 66600.00000 0 12538015.775 -8777441.047 -20340083.419 10 0 60642 67500.00000 0 11793754.015 -6279542.802 -21669949.090 10 0 60642 68400.00000 0 11209916.108 -3598539.904 -22576497.552 10 0 60642 69300.00000 0 10815384.711 -798357.427 -23042234.022 10 0 60642 70200.00000 0 10627447.783 2052278.414 -23058324.918 10 0 60642 71100.00000 0 10651079.294 4882476.547 -22624752.165 10 0 60642 72000.00000 0 10878762.299 7621903.516 -21750290.536 10 0 60642 72900.00000 0 11290859.715 10203477.831 -20452310.277 10 0 60642 73800.00000 0 11856514.625 12565923.758 -18756410.854 10 0 60642 74700.00000 0 12535039.468 14656078.822 -16695895.001 10 0 60642 75600.00000 0 13277732.953 16430860.421 -14311095.240 10 0 60642 76500.00000 0 14030045.903 17858811.947 -11648567.762 10 0 60642 77400.00000 0 14734003.057 18921166.875 -8760170.826 10 0 60642 78300.00000 0 15330777.757 19612389.848 -5702046.781 10 0 60642 79200.00000 0 15763310.781 19940175.759 -2533528.162 10 0 60642 80100.00000 0 15978863.430 19924910.332 684010.528 10 0 60642 81000.00000 0 15931398.449 19598617.851 3888333.287 10 0 60642 81900.00000 0 15583690.034 19003442.560 7017533.111 10 0 60642 82800.00000 0 14909075.933 18189728.937 10011210.519 10 0 60642 83700.00000 0 13892779.661 17213782.019 12811618.851 10 0 60642 84600.00000 0 12532748.676 16135401.372 15364756.016 10 0 60642 85500.00000 0 10839974.150 15015291.019 17621383.647 10 0 60643 0.00000 0 8838279.160 13912452.190 19537955.951 10 0 60643 900.00000 0 6563582.160 12881665.435 21077443.373 10 0 60643 1800.00000 0 4062667.426 11971166.751 22210034.453 10 0 60643 2700.00000 0 1391507.616 11220611.038 22913707.171 10 0 60643 3600.00000 0 -1386792.435 10659408.074 23174656.941 10 0 60643 4500.00000 0 -4204349.759 10305499.262 22987574.213 10 0 60643 5400.00000 0 -6991060.887 10164626.485 22355765.605 10 0 60643 6300.00000 0 -9677260.280 10230124.645 21291114.899 10 0 60643 7200.00000 0 -12196371.983 10483248.289 19813882.750 10 0 60643 8100.00000 0 -14487446.370 10894020.960 17952346.540 10 0 60643 9000.00000 0 -16497477.549 11422574.259 15742284.590 10 0 60643 9900.00000 0 -18183404.961 12020922.961 13226311.936 10 0 60643 10800.00000 0 -19513714.790 12635103.701 10453077.929 10 0 60643 11700.00000 0 -20469572.643 13207588.669 7476339.021 10 0 60643 12600.00000 0 -21045437.939 13679873.076 4353923.245 10 0 60643 13500.00000 0 -21249131.983 13995126.649 1146605.731 10 0 60643 14400.00000 0 -21101354.826 14100795.529 -2083082.737 10 0 60643 15300.00000 0 -20634669.708 13951042.065 -5272089.970 10 0 60643 16200.00000 0 -19891997.151 13508916.077 -8358093.690 10 0 60643 17100.00000 0 -18924682.356 12748162.223 -11280743.274 10 0 60643 18000.00000 0 -17790218.577 11654583.447 -13982865.088 10 0 60643 18900.00000 0 -16549724.452 10226899.679 -16411605.228 10 0 60643 19800.00000 0 -15265284.238 8477062.944 -18519484.883 10 0 60643 20700.00000 0 -13997265.918 6430013.778 -20265345.561 10 0 60643 21600.00000 0 -12801732.979 4122888.346 -21615164.176 10 0 60643 22500.00000 0 -11728061.172 1603709.545 -22542721.179 10 0 60643 23400.00000 0 -10816862.274 -1070382.247 -23030108.444 10 0 60643 24300.00000 0 -10098302.928 -3835283.419 -23068067.438 10 0 60643 25200.00000 0 -9590889.026 -6622374.791 -22656152.086 10 0 60643 26100.00000 0 -9300765.565 -9361158.950 -21802714.640 10 0 60643 27000.00000 0 -9221559.338 -11981976.069 -20524716.627 10 0 60643 27900.00000 0 -9334768.408 -14418684.376 -18847370.533 10 0 60643 28800.00000 0 -9610678.942 -16611193.618 -16803621.284 10 0 60643 29700.00000 0 -10009767.719 -18507746.857 -14433479.525 10 0 60643 30600.00000 0 -10484528.377 -20066857.198 -11783221.497 10 0 60643 31500.00000 0 -10981642.091 -21258821.080 -8904472.553 10 0 60643 32400.00000 0 -11444399.447 -22066747.947 -5853193.321 10 0 60643 33300.00000 0 -11815270.491 -22487066.623 -2688588.942 10 0 60643 34200.00000 0 -12038514.425 -22529490.528 528037.084 10 0 60643 35100.00000 0 -12062719.533 -22216446.331 3734462.365 10 0 60643 36000.00000 0 -11843167.474 -21581992.589 6868736.169 10 0 60643 36900.00000 0 -11343923.917 -20670275.519 9870359.053 10 0 60643 37800.00000 0 -10539569.228 -19533587.653 12681430.220 10 0 60643 38700.00000 0 -9416497.949 -18230110.770 15247742.290 10 0 60643 39600.00000 0 -7973733.607 -16821436.845 17519804.318 10 0 60643 40500.00000 0 -6223225.092 -15369969.222 19453775.477 10 0 60643 41400.00000 0 -4189611.744 -13936310.658 21012293.456 10 0 60643 42300.00000 0 -1909465.628 -12576745.063 22165183.387 10 0 60643 43200.00000 0 569959.630 -11340915.866 22890035.067 10 0 60643 44100.00000 0 3192424.369 -10269795.968 23172638.192 10 0 60643 45000.00000 0 5894775.686 -9394032.644 23007267.394 10 0 60643 45900.00000 0 8609315.136 -8732735.878 22396811.043 10 0 60643 46800.00000 0 11266366.591 -8292760.928 21352740.085 10 0 60643 47700.00000 0 13796940.789 -8068516.156 19894915.596 10 0 60643 48600.00000 0 16135388.299 -8042305.872 18051236.367 10 0 60643 49500.00000 0 18221932.134 -8185196.001 15857130.584 10 0 60643 50400.00000 0 20004974.994 -8458368.606 13354898.665 10 0 60643 51300.00000 0 21443084.400 -8814910.502 10592917.335 10 0 60643 52200.00000 0 22506571.338 -9201962.355 7624718.177 10 0 60643 53100.00000 0 23178594.226 -9563138.563 4507956.982 10 0 60643 54000.00000 0 23455739.459 -9841115.700 1303293.149 10 0 60643 54900.00000 0 23348051.736 -9980279.040 -1926799.042 10 0 60643 55800.00000 0 22878510.786 -9929313.112 -5119263.162 10 0 60643 56700.00000 0 22081975.125 -9643623.809 -8211711.748 10 0 60643 57600.00000 0 21003636.798 -9087486.078 -11143669.176 10 0 60643 58500.00000 0 19697052.636 -8235822.720 -13857779.430 10 0 60643 59400.00000 0 18221836.366 -7075535.599 -16300952.565 10 0 60643 60300.00000 0 16641110.868 -5606329.997 -18425424.949 10 0 60643 61200.00000 0 15018830.484 -3840995.042 -20189710.418 10 0 60643 62100.00000 0 13417088.734 -1805126.958 -21559422.183 10 0 60643 63000.00000 0 11893527.190 463693.789 -22507948.486 10 0 60643 63900.00000 0 10498956.323 2917236.582 -23016968.545 10 0 60643 64800.00000 0 9275289.417 5498409.095 -23076799.134 10 0 60643 65700.00000 0 8253876.390 8143423.884 -22686566.002 10 0 60643 66600.00000 0 7454306.664 10784250.951 -21854198.288 10 0 60643 67500.00000 0 6883729.436 13351252.495 -20596247.788 10 0 60643 68400.00000 0 6536717.291 15775888.874 -18937538.630 10 0 60643 69300.00000 0 6395675.721 17993382.437 -16910656.173 10 0 60643 70200.00000 0 6431777.892 19945228.456 -14555287.109 10 0 60643 71100.00000 0 6606381.982 21581449.464 -11917425.335 10 0 60643 72000.00000 0 6872868.403 22862500.762 -9048460.623 10 0 60643 72900.00000 0 7178817.088 23760749.984 -6004168.980 10 0 60643 73800.00000 0 7468431.403 24261471.799 -2843625.068 10 0 60643 74700.00000 0 7685105.634 24363319.284 371941.789 10 0 60643 75600.00000 0 7774027.812 24078255.271 3580325.994 10 0 60643 76500.00000 0 7684708.822 23430949.223 6719536.193 10 0 60643 77400.00000 0 7373332.513 22457667.002 9728975.902 10 0 60643 78300.00000 0 6804829.409 21204701.319 12550592.889 10 0 60643 79200.00000 0 5954588.362 19726408.961 15129976.899 10 0 60643 80100.00000 0 4809735.572 18082936.453 17417386.525 10 0 60643 81000.00000 0 3369928.071 16337727.937 19368687.549 10 0 60643 81900.00000 0 1647628.474 14554917.381 20946186.726 10 0 60643 82800.00000 0 -332151.340 12796711.653 22119346.745 10 0 60643 83700.00000 0 -2532628.707 11120871.063 22865370.019 10 0 60643 84600.00000 0 -4906520.954 9578390.074 23169640.945 10 0 60643 85500.00000 0 -7397758.834 8211472.919 23026018.337 10 0 60644 0.00000 0 -9943574.762 7051887.322 22436971.939 10 0 60644 900.00000 0 -12476884.159 6119763.874 21413558.808 10 0 60644 1800.00000 0 -14928860.942 5422893.020 19975239.018 10 0 60644 2700.00000 0 -17231607.478 4956548.064 18149530.805 10 0 60644 3600.00000 0 -19320806.519 4703844.863 15971509.791 10 0 60644 4500.00000 0 -21138246.959 4636624.542 13483158.940 10 0 60644 5400.00000 0 -22634117.721 4716824.357 10732579.212 10 0 60644 6300.00000 0 -23768972.776 4898280.815 7773073.982 10 0 60644 7200.00000 0 -24515283.077 5128890.298 4662123.384 10 0 60644 8100.00000 0 -24858507.791 5353036.349 1460267.684 10 0 60644 9000.00000 0 -24797637.123 5514180.457 -1770078.633 10 0 60644 9900.00000 0 -24345181.316 5557505.128 -4965858.038 10 0 60644 10800.00000 0 -23526604.223 5432494.882 -8064620.822 10 0 60644 11700.00000 0 -22379224.011 5095342.732 -11005769.053 10 0 60644 12600.00000 0 -20950626.953 4511076.726 -13731766.765 10 0 60644 13500.00000 0 -19296661.757 3655313.006 -16189290.066 10 0 60644 14400.00000 0 -17479100.369 2515557.986 -18330292.205 10 0 60644 15300.00000 0 -15563065.849 1092001.970 -20112960.600 10 0 60644 16200.00000 0 -13614337.973 -602231.151 -21502545.502 10 0 60644 17100.00000 0 -11696652.211 -2541389.684 -22472043.163 10 0 60644 18000.00000 0 -9869107.641 -4687942.672 -23002719.849 10 0 60644 18900.00000 0 -8183793.928 -6993934.948 -23084466.831 10 0 60644 19800.00000 0 -6683737.442 -9402790.731 -22715980.437 10 0 60644 20700.00000 0 -5401252.130 -11851488.750 -21904765.046 10 0 60644 21600.00000 0 -4356762.785 -14273016.343 -20666960.763 10 0 60644 22500.00000 0 -3558147.608 -16598998.691 -19027001.128 10 0 60644 23400.00000 0 -3000624.561 -18762392.435 -17017109.550 10 0 60644 24300.00000 0 -2667182.688 -20700130.944 -14676646.259 10 0 60644 25200.00000 0 -2529536.607 -22355611.255 -12051320.280 10 0 60644 26100.00000 0 -2549560.505 -23680919.968 -9192283.317 10 0 60644 27000.00000 0 -2681138.243 -24638706.996 -6155124.355 10 0 60644 27900.00000 0 -2872349.279 -25203631.264 -2998785.317 10 0 60644 28800.00000 0 -3067896.720 -25363320.626 215580.781 10 0 60644 29700.00000 0 -3211674.522 -25118808.677 3425787.123 10 0 60644 30600.00000 0 -3249365.731 -24484432.822 6569803.603 10 0 60644 31500.00000 0 -3130963.178 -23487200.057 9586938.478 10 0 60644 32400.00000 0 -2813107.769 -22165648.549 12418989.771 10 0 60644 33300.00000 0 -2261147.568 -20568253.321 15011345.951 10 0 60644 34200.00000 0 -1450832.599 -18751442.519 17314016.639 10 0 60644 35100.00000 0 -369575.384 -16777306.093 19282575.574 10 0 60644 36000.00000 0 982775.143 -14711090.670 20878999.752 10 0 60644 36900.00000 0 2593679.006 -12618582.770 22072390.374 10 0 60644 37800.00000 0 4438181.677 -10563486.698 22839563.185 10 0 60644 38700.00000 0 6479712.288 -8604903.635 23165497.759 10 0 60644 39600.00000 0 8671373.113 -6795014.462 23043637.299 10 0 60644 40500.00000 0 10957670.082 -5177060.925 22476032.739 10 0 60644 41400.00000 0 13276616.012 -3783708.005 21473327.170 10 0 60644 42300.00000 0 15562122.601 -2635855.462 20054579.064 10 0 60644 43200.00000 0 17746584.826 -1741948.590 18246925.317 10 0 60644 44100.00000 0 19763552.568 -1097818.155 16085087.936 10 0 60644 45000.00000 0 21550379.503 -687057.954 13610731.082 10 0 60644 45900.00000 0 23050739.092 -481926.041 10871678.291 10 0 60644 46800.00000 0 24216901.712 -444733.595 7921002.725 10 0 60644 47700.00000 0 25011675.868 -529664.407 4816006.521 10 0 60644 48600.00000 0 25409929.584 -684948.954 1617108.150 10 0 60644 49500.00000 0 25399625.198 -855301.130 -1613340.611 10 0 60644 50400.00000 0 24982321.069 -984513.473 -4812284.210 10 0 60644 51300.00000 0 24173116.474 -1018099.012 -7917213.812 10 0 60644 52200.00000 0 23000039.977 -905865.082 -10867412.238 10 0 60644 53100.00000 0 21502905.925 -604306.776 -13605166.437 10 0 60644 54000.00000 0 19731687.052 -78715.189 -16076921.180 10 0 60644 54900.00000 0 17744472.465 695092.124 -18234348.912 10 0 60644 55800.00000 0 15605098.532 1729494.590 -20035312.611 10 0 60644 56700.00000 0 13380554.315 3024302.096 -21444701.227 10 0 60644 57600.00000 0 11138272.837 4566532.259 -22435120.351 10 0 60644 58500.00000 0 8943423.988 6330741.403 -22987424.262 10 0 60644 59400.00000 0 6856324.199 8279895.018 -23091079.355 10 0 60644 60300.00000 0 4930072.307 10366740.198 -22744352.756 10 0 60644 61200.00000 0 3208510.575 12535621.046 -21954323.888 10 0 60644 62100.00000 0 1724595.145 14724659.344 -20736720.545 10 0 60644 63000.00000 0 499242.112 16868207.647 -19115584.623 10 0 60644 63900.00000 0 -459305.343 18899470.858 -17122776.090 10 0 60644 64800.00000 0 -1155565.722 20753185.874 -14797326.833 10 0 60644 65700.00000 0 -1606364.023 22368247.150 -12184658.754 10 0 60644 66600.00000 0 -1839855.506 23690168.934 -9335682.908 10 0 60644 67500.00000 0 -1894073.034 24673282.456 -6305798.417 10 0 60644 68400.00000 0 -1815062.078 25282578.093 -3153811.409 10 0 60644 69300.00000 0 -1654684.116 25495117.645 59204.582 10 0 60644 70200.00000 0 -1468182.320 25300960.234 3271084.746 10 0 60644 71100.00000 0 -1311612.540 24703565.519 6419763.402 10 0 60644 72000.00000 0 -1239247.441 23719659.571 9444456.608 10 0 60644 72900.00000 0 -1301062.073 22378570.679 12286815.506 10 0 60644 73800.00000 0 -1540405.248 20721063.796 14892029.923 10 0 60644 74700.00000 0 -1991953.040 18797722.385 17209862.866 10 0 60644 75600.00000 0 -2680028.889 16666944.460 19195598.100 10 0 60644 76500.00000 0 -3617359.836 14392634.720 20810884.619 10 0 60644 77400.00000 0 -4804320.645 12041686.711 22024463.576 10 0 60644 78300.00000 0 -6228698.007 9681357.049 22812765.149 10 0 60644 79200.00000 0 -7865986.157 7376638.075 23160364.800 10 0 60644 80100.00000 0 -9680203.859 5187735.388 23060290.424 10 0 60644 81000.00000 0 -11625201.764 3167752.796 22514174.048 10 0 60644 81900.00000 0 -13646409.122 1360679.191 21532244.029 10 0 60644 82800.00000 0 -15682950.657 -200239.804 20133156.065 10 0 60644 83700.00000 0 -17670048.779 -1493677.687 18343663.979 10 0 60644 84600.00000 0 -19541613.759 -2510900.702 16198133.901 10 0 60644 85500.00000 0 -21232915.695 -3255909.756 13737908.471 99